FW0600 Weather Reports


time (UTC)temp
C
wind
direction
speed
KPH
gust
KPH
rain 1hr
cm
rain 24hr
cm
rain mn
cm
humidity
%
barometer
mb
20260504081547 19 308 0.0 1.6 0.00 0.58 0.58 86 1014.8
20260504044541 19 298 0.0 4.8 0.10 0.51 0.51 89 1014.2
20260504043034 18 309 1.6 6.4 0.10 0.48 0.48 91 1014.2
20260504041532 18 299 0.0 9.7 0.13 0.46 0.46 93 1014.6
20260504040027 18 335 0.0 4.8 0.13 0.43 0.43 93 1014.6
20260504034526 17 320 0.0 1.6 0.15 0.41 0.41 93 1014.8
20260504033025 17 298 0.0 3.2 0.15 0.38 0.38 92 1014.9
20260504031522 17 313 0.0 4.8 0.15 0.33 0.33 92 1015.2
20260504030122 18 286 0.0 4.8 0.15 0.30 0.30 91 1015.7
20260504024521 18 319 0.0 3.2 0.15 0.25 0.25 90 1016.0
20260504023020 18 303 0.0 3.2 0.15 0.23 0.23 89 1016.3
20260504021518 19 291 0.0 3.2 0.15 0.18 0.18 88 1016.6
20260504020019 19 206 0.0 3.2 0.13 0.15 0.15 88 1017.0
20260504014518 19 298 0.0 4.8 0.08 0.13 0.13 86 1017.0
20260504013016 20 316 0.0 0.0 0.05 0.08 0.08 85 1017.3
20260504011519 20 322 0.0 0.0 0.00 0.05 0.05 85 1017.4
20260504010015 20 234 0.0 0.0 0.03 0.05 0.05 85 1017.4
20260504004520 19 171 0.0 0.0 0.05 0.05 0.05 85 1017.5
20260504003110 19 290 0.0 0.0 0.05 0.05 0.05 86 1017.3
20260504001510 18 290 0.0 0.0 0.05 0.05 0.05 86 1017.2
20260504000007 18 290 0.0 0.0 0.03 0.03 0.03 85 1017.3
20260503234508 18 291 0.0 4.8 0.00 0.00 0.00 83 1017.6
20260503233005 19 17 0.0 4.8 0.00 0.00 0.00 83 1017.9
20260503231503 19 61 0.0 3.2 0.00 0.00 0.00 85 1017.7
20260503230002 19 117 0.0 6.4 0.00 0.00 0.00 86 1017.4
20260503224600 18 63 0.0 1.6 0.00 0.00 0.00 88 1017.2
20260503223057 18 323 0.0 3.2 0.00 0.00 0.00 89 1016.9
20260503221554 18 130 0.0 0.0 0.00 0.00 0.00 91 1016.7
20260503220053 17 130 0.0 1.6 0.00 0.00 0.00 92 1016.6
20260503214550 17 117 0.0 3.2 0.00 0.00 0.00 93 1016.8
20260503213055 17 165 0.0 1.6 0.00 0.00 0.00 94 1016.4
20260503211545 17 148 0.0 0.0 0.00 0.00 0.00 94 1016.4
20260503210046 16 148 0.0 0.0 0.00 0.00 0.00 94 1016.2
20260503204542 16 148 0.0 0.0 0.00 0.00 0.00 94 1016.1
20260503203039 16 148 0.0 1.6 0.00 0.00 0.00 94 1016.0
20260503201540 16 145 0.0 1.6 0.00 0.00 0.00 94 1015.9
20260503200044 16 119 0.0 1.6 0.00 0.00 0.00 95 1015.7
20260503194541 16 107 0.0 0.0 0.00 0.00 0.00 94 1015.5
20260503193041 16 107 0.0 0.0 0.00 0.00 0.00 94 1015.5
20260503191536 16 107 0.0 0.0 0.00 0.00 0.00 94 1015.5
20260503190035 16 107 0.0 0.0 0.00 0.00 0.00 94 1015.5
20260503184535 16 107 0.0 0.0 0.00 0.00 0.00 94 1015.6
20260503183050 16 107 0.0 0.0 0.00 0.00 0.00 94 1015.6
20260503181533 16 107 0.0 0.0 0.00 0.00 0.00 94 1015.5
20260503180033 15 107 0.0 0.0 0.00 0.00 0.00 94 1015.5
20260503174531 15 107 0.0 0.0 0.00 0.00 0.00 93 1015.6
20260503173029 15 107 0.0 0.0 0.00 0.00 0.00 92 1015.7
20260503171527 15 107 0.0 0.0 0.00 0.00 0.00 92 1015.8